STARLINK-5976 (56343 NORAD) Tracking and Keplerian Element Data

This shows tracking and keplerian element data for the satellite.

Feedback or suggestion? Click here.




ElementValue
Catalog56343
NameSTARLINK-5976
Epoch Orbit181
Epoch Day127.00001157
Epoch Year2023
RAAN126.4745
Inclination97.6633
Eccentricity0.0001356
Argument of Perigee90.9473
Mean Anonmoly239.8511
Mean Motion15.68204038
Decay Rate-0.00870736
L11 56343U 23058AC 23127.00001157 -.00870736 00000+0 -86782-2 0 9993
L22 56343 97.6633 126.4745 0001356 90.9473 239.8511 15.68204038 1819



Live tracking and technical data element details for STARLINK-5976 (NORAD 56343). STARLINK-5976 can be tracked NOW for your location showing map with azimuth and elevation plus other details from your city location.







IsCatalogInMostPopularTable: catalog: 56343, numindb: 7
Update: records affected: 1



GetName: 56343 STARLINK-5976

Hit Count: updated at: Wed, 07 Jun 2023 09:41:44 GMT